Regional Weather Roundup
Issued by NWS State College, PA

Home | Current Version | Previous Version | Graphics & Text | Print | Product List | Glossary Off
Versions: 1 2 3 4 5 6 7 8 9 10 11 12 13 14 15 16 17 18 19 20 21 22 23 24 25 26 27 28 29 30 31 32 33 34 35 36 37 38 39 40 41 42 43 44 45 46 47 48 49 50

000
ASUS41 KCTP 231010
RWRCTP

REGIONAL WEATHER ROUNDUP
NATIONAL WEATHER SERVICE STATE COLLEGE PA
600 AM EDT FRI JUN 23 2017

Note: "fair" indicates few or no clouds below 12,000 feet with no
significant weather and/or obstructions to visibility.

* = STATION THAT DOES NOT REPORT PRECIPITATION /E.G. RAIN...SNOW...ETC/
    THUNDER OR FOG.

PAZ002>004-007>009-013>016-020>023-029>032-231100-
WESTERN PENNSYLVANIA

CITY           SKY/WX    TMP DP  RH WIND       PRES   REMARKS
ERIE           MOCLDY    73  66  78 S12       29.71F
MEADVILLE      CLOUDY    69  67  93 S7        29.78F
FRANKLIN*      CLOUDY    68  63  83 S12       29.80F
NEW CASTLE     CLOUDY    70  67  90 MISG      29.79F FOG
BEAVER COUNTY  NOT AVBL
BUTLER*        CLOUDY    68  64  88 S9        29.81F
PITTSBURGH INT DRIZZLE   69  69 100 S3        29.80S
PITTSBURGH     LGT RAIN  68  65  90 S6        29.80F FOG
INDIANA*       CLOUDY    68  68 100 CALM      29.86S FOG
LATROBE        LGT RAIN  68  68 100 CALM      29.83F
WASHINGTON CO* CLOUDY    66  64  94 S3        29.83S
$$

PAZ004>006-010>012-017>019-024>028-033>037-041-042-045-046-049>053-231100-
CENTRAL PENNSYLVANIA

CITY           SKY/WX    TMP DP  RH WIND       PRES   REMARKS
BRADFORD       CLOUDY    69  66  90 VRB7      29.83F
DUBOIS         CLOUDY    68  64  87 S7        29.83F
CLEARFIELD     CLOUDY    67  66  97 CALM      29.85F
JOHNSTOWN      RAIN      67  65  93 S10       29.87F FOG
ALTOONA        CLOUDY    69  68  96 SW7       29.86F
STATE COLLEGE  HVY RAIN  68  66  94 CALM      29.85S
WILLIAMSPORT   CLOUDY    70  68  93 E5        29.80F FOG
SELINSGROVE    CLOUDY    69  69 100 CALM      29.83F FOG
FT INDIANTOWN  FOG       69  69 100 CALM      29.84F VSB<1/4
CAPITAL CITY   CLOUDY    72  69  90 CALM      29.84F
HARRISBURG     CLOUDY    72  70  93 SE3       29.83F
YORK           CLOUDY    74  71  91 NW3       29.85S
$$

PAZ038>040-043-044-047-048-054-055-060>062-067>071-231100-
EASTERN PENNSYLVANIA

CITY           SKY/WX    TMP DP  RH WIND       PRES   REMARKS
SCRANTON       CLEAR     69  67  93 CALM      29.84F
MOUNT POCONO   PTCLDY    67  66  97 W5        29.89F
ALLENTOWN      CLOUDY    71  68  90 CALM      29.84F
QUAKERTOWN*    PTSUNNY   70  70 100 CALM      29.86S
READING        MOCLDY    72  72 100 CALM      29.84S
LANCASTER      MOCLDY    72  71  97 CALM      29.85S FOG
COATESVILLE    CLOUDY    73  73 100 CALM      29.87F FOG
POTTSTOWN      CLOUDY    72  71  97 CALM      29.86S
BLUE BELL      MOCLDY    73  72  94 SW5       29.86S
DOYLESTOWN     CLOUDY    73  71  93 CALM      29.84S
WILLOW GROVE   NOT AVBL
NORTH PHILA    MOCLDY    78  73  84 VRB3      29.85F
PHILADELPHIA   MOCLDY    76  72  87 S9        29.85S
$$




USA.gov is the U.S. government's official web portal to all federal, state and local government web resources and services.